2019-072D (44706 NORAD) Tracking and Keplerian Element Data

This shows tracking and keplerian element data for the satellite.

Feedback or suggestion? Click here.




ElementValue
Catalog44706
Name2019-072D
Epoch Orbit146
Epoch Day316.80011921
Epoch Year2019
RAAN29.5228
Inclination97.4995
Eccentricity0.0013847
Argument of Perigee234.2711
Mean Anonmoly266.6857
Mean Motion15.23497825
Decay Rate0.0018496
L11 44706U 19072D 19316.80011921 .00184960 00000-0 75524-2 0 9995
L22 44706 97.4995 29.5228 0013847 234.2711 266.6857 15.23497825 1464

Live tracking and technical data element details for 2019-072D (NORAD 44706). 2019-072D can be tracked NOW for your location showing map with azimuth and elevation plus other details from your city location.

Track the satellite on the map from your city or location and see movement details for azimuth, elevation, latitude, longitude, range, height, and movement on the map or in text.







IsCatalogInMostPopularTable: catalog: 44706, numindb: 6
Update: records affected: 1



GetName: 44706 2019-072D

Hit Count: updated at: Thu, 14 Nov 2019 05:41:50 GMT